[[{"header":{"parameterUnit":"m.s-1","parameterCategory":1,"la1":30.2991,"la2":30.254,"lo1":-89.0895,"lo2":-89.0444,"dy":0.0017,"dx":0.0017,"nx":28,"ny":28,"refTime":"2025-07-29T09:00:00:Z","depth":0,"parameterNumber":2,"parameterNumberName":"U-component_of_WINDS"},"data":[0,0,0,0,0,0,0,0,0,0,0,0,0,0,0,0,0,0,0,0,0,0,0,0,0,0,0,0,0,0,0,0,0,0,0,0,0,0,0,0,0,0,0,0,0,0,0,0,0,0,0,0,0,0,0,0,0,0,3.8196,3.8197,0,3.8231,3.8232,3.8232,3.8128,3.8125,3.8121,3.8118,3.8153,3.8157,3.8161,0,0,0,0,0,0,0,0,0,0,0,0,0,3.8037,3.8041,3.8196,3.8197,3.8197,3.8231,3.8232,3.8232,3.8128,3.8124,3.8121,3.8117,3.8152,3.8156,3.8161,0,0,0,0,0,0,0,0,0,0,0,0,0,3.8093,3.8042,3.8196,3.8149,3.8146,3.8231,3.8232,3.8232,3.8129,3.8124,3.812,3.8115,3.815,3.8156,3.8162,3.8294,0,0,3.818,3.8182,0,0,0,0,0,0,0,0,3.809,3.8099,3.8156,3.8153,3.8149,3.817,3.8188,3.8253,3.813,3.8135,3.8118,3.8113,3.8163,3.8167,3.8184,3.8295,3.8297,3.818,3.8184,3.8186,3.8188,0,0,0,0,0,0,0,3.8086,3.8097,3.821,3.8157,3.8152,3.8126,3.8129,3.82,3.8175,3.8135,3.8127,3.8133,3.816,3.8179,3.8184,3.8297,3.818,3.8185,3.8189,3.8191,3.8517,3.8522,0,0,0,0,0,0,3.8088,3.8094,3.8209,3.8211,3.8107,3.8133,3.8136,3.8168,3.8174,3.8171,3.8137,3.8128,3.8171,3.8178,3.8185,3.8339,3.8186,3.8192,3.8195,3.8512,3.8518,3.8523,0,0,0,0,0,0,3.8085,3.81,3.8207,3.8151,3.8162,3.8141,3.8178,3.8171,3.819,3.8176,3.8171,3.8161,3.8168,3.8177,3.8267,3.8339,3.8194,3.82,3.8506,3.8513,3.8521,3.8649,0,0,0,0,0,0,3.8081,3.8099,3.815,3.8152,3.8166,3.829,3.8182,3.8175,3.8201,3.8189,3.8197,3.8194,3.8165,3.8259,3.8273,3.8344,3.8204,3.8499,3.8509,3.8518,3.8638,3.866,3.8679,0,0,0,0,0,3.8076,3.8185,3.8153,3.8167,3.8229,3.8295,3.8302,3.8266,3.8207,3.8257,3.8248,3.8194,3.8329,3.8269,3.8284,3.8358,3.8494,3.8506,3.8517,3.8629,3.8656,3.8678,0,0,0,0,0,0,3.8191,3.8184,3.8149,3.8262,3.828,3.8277,3.8339,3.8296,3.833,3.8318,3.8272,3.8274,3.8373,3.8374,3.8308,3.8485,3.8401,3.8416,3.8481,3.8506,3.8526,3.8524,3.8209,0,0,0,0,0,3.8229,3.8284,3.8275,3.8375,3.8386,3.8362,3.8389,3.836,3.8376,3.8383,3.838,3.8397,3.8443,3.8475,3.8516,3.8638,3.8637,3.8696,3.8716,3.8733,3.8747,3.881,3.8835,3.8561,3.8561,3.8561,0,0,3.831,3.8313,3.835,3.8399,3.8409,3.8466,3.8368,3.8433,3.8474,3.8392,3.8477,3.8476,3.8492,3.8598,3.8645,3.8603,3.8822,3.8748,3.8761,3.8766,3.8824,3.885,3.8873,3.8569,3.8568,3.8567,0,0,3.8485,3.8493,3.8577,3.8589,3.8606,3.8588,3.8609,3.8612,3.8608,3.8693,3.8632,3.868,3.8761,3.8775,3.8792,3.8971,3.8923,3.8986,3.9092,3.9155,3.9176,3.9195,3.9258,3.9282,3.9,3.9,3.9,0,3.8582,3.8666,3.8625,3.8694,3.8717,3.8645,3.8729,3.8743,3.8772,3.8789,3.8741,3.884,3.8846,3.8954,3.8998,3.9014,3.9035,3.8985,3.9176,3.9195,3.9212,3.9272,3.9296,3.9008,3.9007,3.9006,3.9005,0,3.8784,3.8844,3.8909,3.894,3.897,3.9046,3.9016,3.9051,3.9019,3.9007,3.9093,3.9097,3.9138,3.9161,3.9131,3.9265,3.9238,3.9184,3.9099,3.9246,3.9302,3.9325,3.9018,3.9016,3.9013,3.9012,0,0,3.9034,3.904,3.9065,3.9078,3.909,3.9135,3.9207,3.9247,3.9278,3.93,3.9359,3.9428,3.9378,3.9398,3.9368,3.9423,3.9563,3.9361,3.9361,3.9399,3.9711,3.9752,3.9779,3.9531,3.9535,3.9539,3.9709,0,3.9206,3.9331,3.9296,3.942,3.9474,3.9405,3.9468,3.9482,3.9472,3.9515,3.9503,3.9553,3.9483,3.9495,3.9546,3.9536,3.9625,3.9523,3.9585,3.9588,3.9584,3.9808,3.9852,4.0013,3.9731,3.9734,3.9737,0,3.9424,3.9455,3.9585,3.9588,3.9609,3.9666,3.9699,3.9742,3.9756,3.9744,3.9766,3.9725,3.9795,3.9709,3.9804,3.9735,3.9758,3.9757,3.9762,3.9767,3.9672,3.9819,4.0063,4.0088,3.9771,3.9768,3.9766,0,3.9593,3.9667,3.9753,3.9766,3.9772,3.9813,3.9818,3.9827,3.9853,3.9882,3.9898,3.9934,3.9955,3.9984,3.9953,3.9893,4.0053,3.9964,4.0045,4.0046,4.0082,4.008,4.0334,4.0097,4.0097,4.0096,4.0096,0,3.9788,3.9871,3.9829,3.9883,3.9972,3.9931,4.002,4.0016,4.0025,4.0076,4.0019,4.0068,4.0024,4.0068,4.0045,4.0127,4.0136,4.0129,4.0122,4.0134,4.0135,4.0149,4.0137,4.0103,4.0101,4.01,4.0099,0,3.9992,3.9968,4.0058,4.0056,4.0057,4.0123,4.012,4.0169,4.0154,4.022,4.0233,4.0209,4.0259,4.0231,4.0282,4.0265,4.0373,4.035,4.0368,4.0362,4.0444,4.0437,4.0716,4.075,4.0492,4.0494,4.0496,0,4.0119,4.0181,4.0185,4.0215,4.0223,4.0272,4.0298,4.0259,4.0289,4.0309,4.0355,4.04,4.0433,4.0516,4.0503,4.0541,4.0519,4.0614,4.0525,4.0535,4.052,4.0517,4.0523,4.0632,4.0635,4.0638,4.064,0,4.0347,4.0331,4.0372,4.0408,4.0441,4.0467,4.0488,4.0516,4.0477,4.0513,4.0563,4.0589,4.0641,4.0685,4.0718,4.0721,4.0674,4.0668,4.0689,4.0703,4.0711,4.0707,4.0418,4.0662,4.066,4.0658,4.0657,4.0656,4.0516,4.0567,4.0578,4.0624,4.0636,4.0657,4.0703,4.0694,4.0735,4.0774,4.0748,4.0807,4.0818,4.0857,4.0866,4.0911,4.0872,4.0903,4.091,4.0918,4.093,4.0703,4.0917,4.0916,4.0915,4.0915,4.0914,0,4.074,4.0743,4.0787,4.0818,4.0855,4.0807,4.0828,4.0862,4.0914,4.0929,4.0963,4.102,4.1063,4.1054,4.1092,4.113,4.1109,4.1141,4.1138,4.114,4.0962,4.094,4.1157,4.1157,4.1157,4.1157,4.1157,4.1157,4.0861,4.0945,4.0931,4.102,4.1022,4.108,4.1096,4.1115,4.1126,4.1192,4.1228,4.1221,4.1226,4.1264,4.1301,4.1297,4.1314,4.1354,4.1342,4.1176,4.1152,4.1129,4.1109,4.1358,4.1358,4.1516,4.1518,4.1519]},{"header":{"parameterUnit":"m.s-1","parameterCategory":1,"la1":30.2991,"la2":30.254,"lo1":-89.0895,"lo2":-89.0444,"dy":0.0017,"dx":0.0017,"nx":28,"ny":28,"refTime":"2025-07-29T09:00:00:Z","depth":0,"parameterNumber":3,"parameterNumberName":"V-component_of_WINDS"},"data":[0,0,0,0,0,0,0,0,0,0,0,0,0,0,0,0,0,0,0,0,0,0,0,0,0,0,0,0,0,0,0,0,0,0,0,0,0,0,0,0,0,0,0,0,0,0,0,0,0,0,0,0,0,0,0,0,0,0,3.8752,3.8753,0,3.8834,3.8835,3.8836,3.8838,3.8837,3.8836,3.8835,3.8912,3.8915,3.8918,0,0,0,0,0,0,0,0,0,0,0,0,0,3.8589,3.8592,3.8752,3.8753,3.8754,3.8834,3.8835,3.8836,3.8838,3.8837,3.8836,3.8835,3.8911,3.8915,3.8918,0,0,0,0,0,0,0,0,0,0,0,0,0,3.8664,3.8593,3.8752,3.8765,3.8767,3.8834,3.8835,3.8836,3.8839,3.8837,3.8836,3.8834,3.891,3.8914,3.8919,3.8976,0,0,3.8932,3.8934,0,0,0,0,0,0,0,0,3.866,3.867,3.8762,3.8764,3.8767,3.8825,3.8806,3.8883,3.8839,3.8811,3.8835,3.8834,3.8884,3.889,3.8909,3.8979,3.8982,3.8933,3.8935,3.8937,3.8939,0,0,0,0,0,0,0,3.8655,3.8667,3.8784,3.8763,3.8766,3.8764,3.8773,3.882,3.8854,3.8814,3.8814,3.8824,3.8885,3.8904,3.891,3.8984,3.8933,3.8937,3.8939,3.8941,3.9104,3.9105,0,0,0,0,0,0,3.8648,3.8663,3.8782,3.8787,3.8709,3.8768,3.8779,3.8807,3.8854,3.886,3.8825,3.8824,3.8898,3.8905,3.8913,3.8983,3.8937,3.8941,3.8944,3.9102,3.9104,3.9106,0,0,0,0,0,0,3.8645,3.8659,3.8778,3.8725,3.874,3.8773,3.8805,3.881,3.883,3.8863,3.8868,3.884,3.8897,3.8907,3.896,3.8985,3.8943,3.8947,3.91,3.9103,3.9105,3.9122,0,0,0,0,0,0,3.864,3.8658,3.8682,3.8725,3.8743,3.8827,3.8807,3.8812,3.8838,3.8837,3.8878,3.8883,3.8896,3.8954,3.8965,3.8991,3.8951,3.9098,3.9101,3.9104,3.9119,3.9125,3.913,0,0,0,0,0,3.8634,3.8682,3.8683,3.8697,3.8774,3.8828,3.8838,3.8854,3.884,3.8863,3.8884,3.8882,3.8981,3.8959,3.8972,3.8999,3.9096,3.91,3.9104,3.9117,3.9124,3.9129,0,0,0,0,0,0,3.8637,3.8688,3.8689,3.8753,3.8787,3.8828,3.8858,3.886,3.8897,3.8894,3.891,3.8919,3.8972,3.8991,3.8966,3.9056,3.9037,3.9043,3.9042,3.9049,3.9054,3.9048,3.8955,0,0,0,0,0,3.8646,3.8689,3.8729,3.8781,3.8798,3.8825,3.8849,3.8859,3.8893,3.8907,3.8932,3.8963,3.9001,3.9026,3.9063,3.9122,3.913,3.9147,3.9152,3.9156,3.9161,3.9193,3.92,3.9118,3.9118,3.9118,0,0,3.8663,3.8696,3.8721,3.8782,3.881,3.8851,3.8837,3.8881,3.8911,3.8913,3.8966,3.8985,3.9021,3.9077,3.9103,3.9094,3.9185,3.916,3.9163,3.9167,3.9197,3.9205,3.9212,3.912,3.912,3.912,0,0,3.8716,3.8745,3.8792,3.882,3.8862,3.888,3.8891,3.8932,3.8946,3.9,3.9001,3.9036,3.9101,3.9127,3.9148,3.921,3.9208,3.9221,3.9247,3.9278,3.9284,3.929,3.9312,3.9319,3.9226,3.9226,3.9226,0,3.8731,3.8797,3.8815,3.886,3.8886,3.8891,3.8937,3.8962,3.9013,3.903,3.9019,3.9102,3.9126,3.9188,3.9203,3.922,3.9232,3.9217,3.9282,3.9288,3.9294,3.9315,3.9323,3.9227,3.9227,3.9227,3.9227,0,3.8813,3.8858,3.889,3.8942,3.8971,3.9016,3.9039,3.9066,3.9072,3.909,3.9144,3.9173,3.9216,3.9231,3.9237,3.9294,3.9287,3.9279,3.926,3.9303,3.9323,3.9331,3.9229,3.9228,3.9228,3.9228,0,0,3.8871,3.8933,3.8944,3.8968,3.9014,3.9047,3.9091,3.9136,3.9158,3.9192,3.9228,3.9283,3.9277,3.9301,3.9309,3.9336,3.9382,3.9325,3.9326,3.9335,3.9446,3.9452,3.9461,3.9382,3.9383,3.9384,3.9443,0,3.8929,3.9011,3.9029,3.9098,3.9139,3.9144,3.9182,3.9213,3.923,3.9265,3.9283,3.9322,3.931,3.9325,3.9352,3.9371,3.9405,3.9367,3.9414,3.9415,3.9406,3.9471,3.9478,3.9532,3.9451,3.9452,3.9453,0,3.9008,3.9047,3.9121,3.9162,3.918,3.9214,3.9256,3.929,3.9324,3.9334,3.9362,3.9367,3.941,3.9389,3.9448,3.9422,3.9442,3.9454,3.9456,3.9461,3.9437,3.9478,3.9549,3.9557,3.9465,3.9464,3.9463,0,3.9043,3.9113,3.9167,3.9187,3.9235,3.9259,3.928,3.9313,3.9339,3.9373,3.939,3.9428,3.9449,3.9478,3.9493,3.9476,3.955,3.953,3.9559,3.9559,3.9575,3.9574,3.965,3.9587,3.9587,3.9587,3.9587,0,3.9106,3.9151,3.9184,3.9217,3.9267,3.9285,3.9333,3.9353,3.9382,3.9417,3.9422,3.9455,3.9472,3.9506,3.9518,3.9565,3.9574,3.9582,3.9585,3.9582,3.9581,3.9596,3.9592,3.9589,3.9589,3.9588,3.9588,0,3.9154,3.9178,3.9236,3.9278,3.9289,3.9324,3.9359,3.939,3.9407,3.9451,3.9462,3.9488,3.9529,3.9547,3.9595,3.9603,3.9657,3.9656,3.9646,3.9647,3.9675,3.9672,3.9764,3.9776,3.9704,3.9705,3.9706,0,3.9193,3.9228,3.9274,3.93,3.9322,3.9362,3.9388,3.9406,3.9433,3.9474,3.95,3.9541,3.9575,3.9638,3.966,3.9697,3.9698,3.9727,3.9703,3.9699,3.9698,3.9696,3.9699,3.9732,3.9732,3.9733,3.9733,0,3.926,3.927,3.9309,3.9352,3.9384,3.9418,3.9451,3.947,3.9493,3.9522,3.9565,3.9591,3.9642,3.9682,3.9721,3.9739,3.974,3.9741,3.9749,3.9747,3.974,3.9744,3.9658,3.9739,3.9738,3.9738,3.9737,3.9737,3.9305,3.9336,3.9374,3.9417,3.9444,3.9475,3.9506,3.9528,3.9565,3.9609,3.9616,3.9662,3.9693,3.9745,3.9765,3.9799,3.9792,3.9804,3.9807,3.981,3.9812,3.9735,3.9806,3.9806,3.9806,3.9806,3.9805,0,3.9372,3.9396,3.9436,3.9483,3.9516,3.9516,3.9552,3.9579,3.962,3.9651,3.9685,3.9733,3.9771,3.9796,3.9835,3.9857,3.9858,3.9866,3.9865,3.9869,3.9817,3.9805,3.9865,3.9865,3.9865,3.9865,3.9865,3.9865,3.9411,3.9464,3.9478,3.9544,3.9567,3.9614,3.9635,3.9662,3.9687,3.9741,3.9775,3.9791,3.9819,3.986,3.9894,3.99,3.9914,3.9923,3.9928,3.9879,3.9873,3.9867,3.9857,3.9926,3.9926,3.9978,3.9979,3.9979]}]]